Hourly Data Report for October 27, 2004

TORONTO CITY
ONTARIO

43°40'00.000" N
79°24'00.000" W
112.50 m
6158355
71508
XTO

Download Data

Hourly Data (October 2004)
Hourly Data Report for October 27, 2004
TIME
LST
Temp Definition
°C
Dew Point Definition
°C
Rel Hum Definition
%
Precip. Amount Definition
mm

Wind Dir Definition
10's deg

Wind Spd Definition
km/h
Visibility Definition
km
Stn Press Definition
kPa
Hmdx Definition


Wind Chill Definition


Weather Definition


00:00 11.0 10.0 94   LegendMM LegendMM LegendMM 100.91     LegendNANA
01:00 10.6 9.5 93   LegendMM LegendMM LegendMM 100.91     LegendNANA
02:00 10.9 9.8 93   LegendMM LegendMM LegendMM 100.94     LegendNANA
03:00 11.8 10.0 89   LegendMM LegendMM LegendMM 100.89     LegendNANA
04:00 11.6 9.8 89   LegendMM LegendMM LegendMM 100.87     LegendNANA
05:00 11.7 10.0 89   LegendMM LegendMM LegendMM 100.94     LegendNANA
06:00 11.4 9.9 90   LegendMM LegendMM LegendMM 101.00     LegendNANA
07:00 11.0 9.3 89   LegendMM LegendMM LegendMM 101.00     LegendNANA
08:00 10.9 9.5 91   LegendMM LegendMM LegendMM 101.09     LegendNANA
09:00 11.2 9.6 90   LegendMM LegendMM LegendMM 101.11     LegendNANA
10:00 11.8 9.9 88   LegendMM LegendMM LegendMM 101.17     LegendNANA
11:00 11.6 9.5 87   LegendMM LegendMM LegendMM 101.21     LegendNANA
12:00 11.7 9.7 88   LegendMM LegendMM LegendMM 101.16     LegendNANA
13:00 11.5 9.5 88   LegendMM LegendMM LegendMM 101.18     LegendNANA
14:00 10.9 8.1 83   LegendMM LegendMM LegendMM 101.16     LegendNANA
15:00 11.1 8.7 85   LegendMM LegendMM LegendMM 101.20     LegendNANA
16:00 11.3 8.7 84   LegendMM LegendMM LegendMM 101.19     LegendNANA
17:00 10.9 7.0 77   LegendMM LegendMM LegendMM 101.23     LegendNANA
18:00 10.9 6.3 73   LegendMM LegendMM LegendMM 101.27     LegendNANA
19:00 10.8 5.8 71   LegendMM LegendMM LegendMM 101.26     LegendNANA
20:00 10.7 6.2 74   LegendMM LegendMM LegendMM 101.30     LegendNANA
21:00 10.7 6.0 73   LegendMM LegendMM LegendMM 101.31     LegendNANA
22:00 10.4 4.5 67   LegendMM LegendMM LegendMM 101.35     LegendNANA
23:00 9.9 1.8 57   LegendMM LegendMM LegendMM 101.38     LegendNANA

Notes on Data Quality.

Legend

  • E = Estimated
  • M = Missing
  • NA = Not Available*
  • [empty] = Indicates an unobserved value
Date modified: